Simultaneous Nadir Overpasses (SNOs) Predictions

Prediction of SNOs between GOES-14 and AQUA Satellite Orbit:

Table of predicted SNOs for the next 14.0 days since TLE Epoch: 4/13/2024
Index Date Time (GOES-14) GOES-14 Lat,Lon AQUA Lat,Lon Distance(km) Time Diff (sec)
1 04/13/2024 09:26:49 0.16,-108.56 0.41,-109.82 143.24 80
2 04/15/2024 09:08:09 0.17,-108.56 -0.41,-105.91 302.08 80
3 04/15/2024 21:28:33 -0.16,-108.56 -0.64,-110.85 259.83 80
4 04/17/2024 21:15:12 -0.17,-108.57 0.17,-106.93 186.44 80
5 04/18/2024 09:35:29 0.16,-108.58 0.83,-111.85 370.87 80
6 04/20/2024 09:16:47 0.17,-108.59 0.04,-107.92 75.83 80
7 04/20/2024 21:37:12 -0.16,-108.58 -1.05,-112.87 486.63 80
8 04/22/2024 21:21:09 -0.16,-108.60 -0.26,-108.94 39.47 80
9 04/24/2024 21:07:47 -0.17,-108.60 0.62,-105.02 407.82 80
10 04/25/2024 09:28:03 0.15,-108.62 0.42,-109.93 148.90 80
